www.pogodaiklimat.ru

Погода и климат >> Архив погоды >> Россия >> Архангельская область >> Остров Хейса


АРХИВ ПОГОДЫ на Острове Хейса

Время (UTC), дата Ветер
(напр.,м/с)
 
Видим.   Явления Облачность Т
(С)
Тd
(С)
f
(%)
Тe
(С)
Тes
(С)
Комфортность P
(гПа)
Po
(гПа)
Тmin
(С)
Tmax
(С)
R
(мм)
R24
(мм)
S
(см)
06 17.02 СВ 4 20 км позёмок ясно -35.0 -38.6 70 -47 -47 опасность
обморожения
998.4 995.2
09 17.02 С 1 20 км {метель} 10/0
[Ac trans Cs]
-34.3 -38.0 69 -39 -39 опасность
обморожения
999.2 995.9
12 17.02 С 1 20 км {метель} 10/0
[Ac trans Cs]
-33.8 -37.3 71 -38 -38 опасность
обморожения
999.8 996.6
15 17.02 С 6 20 км позёмок 9/0
[Ac trans]
-32.4 -36.0 70 -47 -47 опасность
обморожения
999.7 996.5
18 17.02 СВ 4 20 км {метель} 8/3 600 м
[Sc diur, vesp Ac trans]
-31.9 -35.2 72 -44 -44 опасность
обморожения
1000.4 997.2
21 17.02 С 3 4000 м слаб. снег 10/0
[As op]
-31.3 -34.9 70 -41 -41 опасность
обморожения
1000.9 997.7
00 18.02 СВ 7
{10}
20 км позёмок {снег} 3/0
[Ci fib]
-31.4 -34.8 72 -46 -46 опасность
обморожения
1001.1 997.9 -33.8
03 18.02 СВ 8 20 км позёмок ясно -30.9 -34.1 73 -47 -47 опасность
обморожения
1002.0 998.8 62
06 18.02 СВ 5 20 км {метель} 5/0
[Ac trans]
-30.3 -33.8 71 -43 -43 опасность
обморожения
1002.5 999.3
09 18.02 В 4
{11}
20 км позёмок 10/0
[Ac trans Ci fib]
-30.9 -34.2 73 -42 -42 опасность
обморожения
1002.2 999.0
12 18.02 С 8
{12}
20 км позёмок 10/0
[Ac trans Ci fib]
-30.1 -33.8 70 -46 -46 опасность
обморожения
1001.5 998.4
15 18.02 С 7
{12}
20 км позёмок 10/0
[Ac trans Ci fib]
-29.0 -32.7 70 -43 -43 опасность
обморожения
1000.3 997.2
18 18.02 С 7
{11}
20 км позёмок 9/0
[Ac trans]
-29.3 -32.8 72 -44 -44 опасность
обморожения
998.7 995.6
21 18.02 С 8
{11}
4000 м слаб. снег {метель} 10/0
[As op]
-28.4 -31.5 75 -43 -43 опасность
обморожения
997.2 994.1
00 19.02 С 11-13
{13}
4000 м слаб. снег {метель} 10/3 600 м
[Sc As op]
-27.9 -30.8 76 -45 -45 опасность
обморожения
995.4 992.2 -30.9
03 19.02 С 9
{13}
4000 м слаб. снег {метель} 10/4 600 м
[Sc As op]
-28.0 -31.3 73 -44 -44 опасность
обморожения
994.1 991.0 62
06 19.02 С 10
{13}
4000 м слаб. снег {метель} 10/0
[As op]
-28.1 -31.2 75 -44 -44 опасность
обморожения
992.8 989.7 2
09 19.02 С 8
{12}
4000 м слаб. снег {метель} 10/0
[As op]
-28.0 -31.5 72 -43 -43 опасность
обморожения
991.8 988.7
12 19.02 С 7
{12}
4000 м слаб. снег {метель} 10/0
[As op]
-28.3 -31.6 73 -42 -42 опасность
обморожения
990.8 987.7
15 19.02 С 6 4000 м слаб. снег {метель} 10/0
[As op]
-28.5 -31.7 74 -42 -42 опасность
обморожения
989.9 986.8
18 19.02 С 7
{12}
4000 м слаб. снег {метель} 10/0
[As op]
-29.4 -32.7 73 -44 -44 опасность
обморожения
989.0 985.8 -28.0 3
21 19.02 С 6
{12}
20 км позёмок {снег} 10/0
[As trans]
-29.3 -32.3 75 -43 -43 опасность
обморожения
988.4 985.3
00 20.02 С 5
{11}
20 км {снег, метель} 10/0
[As trans]
-28.8 -31.9 74 -41 -41 опасность
обморожения
988.3 985.2 -29.8
03 20.02 С 6-10
{12}
20 км позёмок 10/0
[As trans]
-28.2 -31.3 75 -41 -41 опасность
обморожения
988.3 985.2
06 20.02 СЗ 4
{12}
20 км позёмок 10/0
[Ac trans Cs]
-27.5 -31.3 70 -38 -38 опасность
обморожения
988.9 985.8 1
09 20.02 СЗ 5 20 км {метель} 10/0
[Ac trans Cs]
-26.2 -29.6 73 -38 -38 опасность
обморожения
990.2 987.1
12 20.02 С 5 20 км {метель} 10/0
[Ac trans Cs]
-25.9 -29.0 75 -37 -37 опасность
обморожения
991.4 988.3
15 20.02 СЗ 6 20 км 10/0
[Ac trans Cs]
-25.3 -28.7 73 -38 -38 опасность
обморожения
992.6 989.5
18 20.02 З 6 4000 м слаб. снег {метель} 10/0
[As op]
-24.9 -27.9 76 -37 -37 опасность
обморожения
993.5 990.4 -25.1
21 20.02 СЗ 6
{11}
4000 м слаб. снег {метель} 10/0
[As op]
-25.6 -29.0 73 -38 -38 опасность
обморожения
994.6 991.5
00 21.02 СЗ 6 20 км {снег, метель} 10/0
[Ac trans Ci fib]
-26.5 -30.1 72 -39 -39 опасность
обморожения
996.3 993.2 -26.5
03 21.02 С 4 20 км 3/0
[Ac trans]
-26.8 -30.0 74 -37 -37 опасность
обморожения
997.8 994.7 62
06 21.02 З 5 20 км 9/0
[Ac trans]
-26.3 -30.0 71 -38 -38 опасность
обморожения
999.7 996.6 -28.1 1
09 21.02 З 4 20 км 8/0
[Ac trans]
-27.1 -31.0 69 -38 -38 опасность
обморожения
1001.9 998.8
12 21.02 З 6 20 км 8/0
[Ac trans]
-26.8 -30.2 73 -40 -40 опасность
обморожения
1003.9 1000.8
15 21.02 З 4 20 км 8/0
[Ac trans]
-27.8 -31.2 73 -39 -39 опасность
обморожения
1005.4 1002.3
18 21.02 ЮЗ 3 20 км ясно -27.9 -30.6 78 -37 -37 опасность
обморожения
1006.4 1003.3
21 21.02 ЮЗ 2 20 км 9/5 630 м
[Sc Ac trans]
-26.8 -29.5 78 -34 -34 опасность
обморожения
1006.1 1003.0
00 22.02 Ю 3 4000 м слаб. снег 10/0
[As op]
-23.4 -26.0 79 -32 -32 опасность
обморожения
1004.6 1001.5 -29.1
03 22.02 ЮВ 6 4000 м слаб. снег {метель} 10/8 600 м
[Sc As op]
-21.3 -23.6 82 -33 -33 опасность
обморожения
1000.5 997.5 62
06 22.02 Ю 8
{13}
4000 м слаб. снег {метель} 10/5 270 м
[Frnb As op]
-16.9 -18.9 84 -28 -28 по сезону 995.0 992.1 2
09 22.02 ЮЗ 9
{14}
4000 м слаб. снег {метель} 10/10 210 м
[Frnb Ns]
-11.1 -12.5 89 -22 -22 тепло 988.5 985.6
12 22.02 З 9
{14}
4000 м слаб. снег {метель} 10/10 240 м
[Frnb Ns]
-7.4 -8.6 91 -17 -17 тепло 983.9 981.0
15 22.02 З 5
{11}
4000 м слаб. снег {метель} 10/10 240 м
[Frnb Ns]
-10.2 -12.4 84 -18 -18 тепло 982.0 979.1
18 22.02 З 4
{11}
20 км {снег, метель} 9/0
[Ac und]
-15.6 -17.7 84 -24 -24 тепло 982.0 979.0 -6.8 3
21 22.02 ЮЗ 5 20 км 9/0
[Ac und]
-13.8 -15.9 84 -22 -22 тепло 982.3 979.4
00 23.02 СВ 7 20 км позёмок 8/0
[Ac trans]
-16.3 -18.1 86 -27 -27 по сезону 983.5 980.6
03 23.02 СВ 9 20 км позёмок 8/0
[Ac trans]
-17.5 -19.4 85 -30 -30 по сезону 984.8 981.9 62
06 23.02 СВ 11
{13}
20 км сильный позёмок 9/0
[Ac trans]
-18.3 -20.3 84 -32 -32 опасность
обморожения
986.3 983.3 -18.3 0.3
09 23.02 СВ 12
{14}
4000 м метель 10/0
[Ac trans Ci fib]
-21.0 -23.3 82 -36 -36 опасность
обморожения
988.5 985.5
12 23.02 СВ 12
{14}
4000 м метель 10/0
[Ac trans Ci fib]
-22.8 -25.3 80 -38 -38 опасность
обморожения
991.2 988.1
15 23.02 СВ 10
{14}
4000 м метель 10/0
[Ac trans Ci fib]
-23.2 -25.7 80 -38 -38 опасность
обморожения
994.0 991.0
18 23.02 В 9
{14}
20 км позёмок 3/3 300 м
[Sc]
-24.0 -26.5 80 -38 -38 опасность
обморожения
996.1 993.0 -16.4
21 23.02 С 2
{11}
20 км {метель} ясно -24.3 -26.9 79 -31 -31 опасность
обморожения
998.4 995.3
00 24.02 ЮВ 2
{11}
20 км {метель} 3/0
[Ci fib]
-26.2 -28.9 78 -33 -33 опасность
обморожения
999.3 996.2
03 24.02 В 2 20 км 3/0
[Ac trans]
-27.1 -29.9 77 -34 -34 опасность
обморожения
999.4 996.3 63

 

Местоположение метеостанции Остров Хейса (Архангельская область, Россия): широта 80.62 долгота 58.05 высота над уровнем моря 25 м.

В архиве по умолчанию представлена погода на Острове Хейса за последнюю неделю. Архивные данные за месяц целиком и за предыдущие месяцы, начиная с января 2011 года, Вы можете получить, выбрав интересующий диапазон дат из раскрывающегося списка и нажав кнопку "Ввод!".


*Определитесь, кто Вы:
робот инопланетянин человек

Внимание! Время в таблицах - всемирное. Для получения местного времени необходимо прибавить поправку, которая равна 3 ч.

Смотрите также архив погоды в соседних городах и на ближайших метеорологических станциях:

Погода на Острове Визе (Красноярский край, Россия) (382 км)
Погода на Мысе Желания (Архангельская область, Россия) (466 км)
Погода на Острове Белый (Норвегия) (495 км)
Погода на Острове Карла XII (Норвегия) (590 км)
Погода на Конгсёйа (Норвегия) (598 км)
Погода на Острове Уединения (Красноярский край, Россия) (610 км)
Погода на Острове Голомянном (Красноярский край, Россия) (626 км)
Погода на Эдже (Норвегия) (751 км)
Погода на Островах Известий ЦИК (Красноярский край, Россия) (754 км)
Погода на Верлегенхукен (Норвегия) (766 км)

Пояснения к столбцам:

Ветер - указаны скорость ветра в м/с - средняя за 10 мин, порывы в срок и между сроками (в фигурных скобках) и направление, откуда дует ветер: С - северный, СВ - северо-восточный, В - восточный, ЮВ - юго-восточный, Ю - южный, ЮЗ - юго-западный, З - западный, СЗ - северо-западный.
Видимость - горизонтальная дальность видимости в метрах или километрах. При видимости от 1 до 10 км при отсутствии осадков обычно наблюдается дымка, при ухудшении видимости до 1 км и менее - туман. В сухую погоду видимость может ухудшаться дымом, пылью или мглою.
Явления - указаны атмосферные явления, наблюдавшиеся в срок или в последний час перед сроком; фигурными скобками обозначены явления, наблюдавшиеся между сроками (за 1-3 часа до срока); квадратными скобками обозначены град или гололедные отложения с указанием их диаметра в мм.
Облачность - указаны через наклонную черту общая и нижняя облачность в баллах и высота нижней границы облаков в метрах; квадратными скобками обозначены формы облаков: Ci - перистые, Cs - перисто-слоистые, Cc - перисто-кучевые, Ac - высококучевые, As - высокослоистые, Sc - слоисто-кучевые, Ns - слоисто-дождевые, Cu - кучевые, Cb - кучево-дождевые. Подробнее классификацию облаков см. в Атласе облаков (PDF).
T - Температура воздуха - температура, измеренная на высоте 2 м над землей.
Td - Температура точки росы - температура, при понижении до которой содержащийся в воздухе водяной пар достигнет насыщения.
f - Относительная влажность воздуха - влажноcть воздуха, измеренная на высоте 2 м над землей.
Te - Эффективная температура - температура, которую ощущает одетый по сезону человек в тени. Характеристика душности погоды. При расчете учитывается влияние влажности воздуха и скорости ветра на теплоощущения человека.
Tes - Эффективная температура на солнце - температура, которую ощущает человек, с поправкой на солнечный нагрев. Характеристика знойности погоды. Зависит от высоты солнца над горизонтом, облачности и скорости ветра. Ночью, в пасмурную погоду, а также при ветре 12 м/с и более поправка равна нулю.
P - Атмосферное давление - приведенное к уровню моря атмосферное давление.
Po - Атмосферное давление - измеренное на уровне метеостанции атмосферное давление.
Tmin - Минимальная температура - минимум температуры воздуха на высоте 2 м над землей.
Tmax - Максимальная температура - максимум температуры воздуха на высоте 2 м над землей.
R - Количество осадков - Количество выпавших осадков за период времени, мм. При наведении курсора мыши на число - период времени, за который выпало указанное количество осадков.
R24 - Количество осадков - Количество выпавших осадков за 24 часа, мм.
S - Снежный покров - Высота снежного покрова, см. При наведении курсора мыши на число - состояние снежного покрова и степень покрытия местности в баллах.